EA1FJG Weather Reports


time (UTC)temp
C
wind
direction
speed
KPH
gust
KPH
rain 1hr
cm
rain 24hr
cm
rain mn
cm
humidity
%
barometer
mb
20260503185103 13 5 3.2 6.4 0.00 1.27 0.48 86 1014.5
20260503185003 13 5 3.2 6.4 0.00 1.27 0.48 86 1014.7
20260503184903 13 5 3.2 6.4 0.00 1.27 0.48 86 1014.5
20260503184803 13 4 3.2 6.4 0.00 1.27 0.48 86 1014.5
20260503184703 13 4 3.2 6.4 0.00 1.27 0.48 86 1014.5
20260503184603 13 4 3.2 6.4 0.00 1.27 0.48 86 1014.7
20260503184503 13 4 3.2 6.4 0.00 1.27 0.48 86 1014.4
20260503184403 13 2 3.2 6.4 0.00 1.27 0.48 86 1014.6
20260503184303 13 5 3.2 6.4 0.00 1.30 0.48 86 1014.5
20260503184224 13 5 3.2 6.4 0.00 1.30 0.48 86 1014.6
20260503184103 13 5 3.2 6.4 0.00 1.30 0.48 86 1014.4
20260503184024 13 6 3.2 6.4 0.00 1.30 0.48 86 1014.6
20260503183903 13 4 3.2 6.4 0.00 1.30 0.48 86 1014.5
20260503183803 13 4 3.2 6.4 0.00 1.30 0.48 86 1014.5
20260503183703 13 5 3.2 6.4 0.00 1.30 0.48 86 1014.4
20260503183603 13 1 3.2 6.4 0.00 1.32 0.48 86 1014.6
20260503183524 13 1 3.2 6.4 0.00 1.32 0.48 86 1014.6
20260503183403 13 3 3.2 6.4 0.00 1.32 0.48 86 1014.6
20260503183303 13 2 3.2 6.4 0.00 1.32 0.48 86 1014.5
20260503183203 13 2 3.2 6.4 0.00 1.32 0.48 86 1014.5
20260503183103 13 1 3.2 6.4 0.00 1.32 0.48 86 1014.5
20260503183024 13 1 3.2 6.4 0.00 1.32 0.48 86 1014.5
20260503182903 13 359 3.2 6.4 0.00 1.32 0.48 86 1014.6
20260503182824 13 1 3.2 6.4 0.00 1.32 0.48 86 1014.7
20260503182703 13 1 3.2 6.4 0.00 1.32 0.48 86 1014.6
20260503182624 13 359 3.2 6.4 0.00 1.32 0.48 86 1014.4
20260503182503 13 5 3.2 6.4 0.00 1.32 0.48 86 1014.5
20260503182403 13 4 3.2 6.4 0.00 1.32 0.48 86 1014.6
20260503182305 13 7 3.2 6.4 0.00 1.32 0.48 86 1014.6
20260503182203 13 5 3.2 6.4 0.00 1.32 0.48 86 1014.5
20260503182103 13 6 3.2 6.4 0.00 1.32 0.48 86 1014.6
20260503182003 13 8 3.2 6.4 0.00 1.32 0.48 86 1014.5
20260503181903 13 8 3.2 6.4 0.00 1.32 0.48 86 1014.4
20260503181803 13 10 3.2 6.4 0.00 1.32 0.48 86 1014.6
20260503181703 13 11 3.2 6.4 0.00 1.32 0.48 86 1014.4
20260503181603 13 12 3.2 6.4 0.00 1.32 0.48 86 1014.6
20260503181504 13 11 3.2 6.4 0.00 1.32 0.48 86 1014.5
20260503181424 13 11 3.2 6.4 0.00 1.32 0.48 86 1014.5
20260503181303 13 9 3.2 6.4 0.00 1.32 0.48 86 1014.6
20260503181203 13 9 3.2 6.4 0.00 1.32 0.48 86 1014.6
20260503181103 13 10 3.2 4.8 0.00 1.32 0.48 86 1014.5
20260503181003 13 9 3.2 4.8 0.00 1.32 0.48 86 1014.5
20260503180903 13 8 1.6 4.8 0.00 1.32 0.48 86 1014.4
20260503180803 13 7 3.2 4.8 0.00 1.32 0.48 86 1014.5
20260503180703 13 5 3.2 4.8 0.00 1.32 0.48 86 1014.6
20260503180603 13 3 3.2 4.8 0.00 1.32 0.48 86 1014.4
20260503180524 13 4 3.2 4.8 0.00 1.32 0.48 86 1014.5
20260503180403 13 4 3.2 4.8 0.00 1.32 0.48 86 1014.4
20260503180303 13 4 3.2 4.8 0.00 1.32 0.48 86 1014.5
20260503180203 13 2 3.2 4.8 0.00 1.32 0.48 86 1014.5
20260503180103 13 2 3.2 4.8 0.00 1.32 0.48 86 1014.4
20260503180024 13 3 3.2 4.8 0.00 1.32 0.48 86 1014.5
20260503175903 13 3 3.2 6.4 0.00 1.32 0.48 85 1014.6
20260503175803 13 2 3.2 6.4 0.00 1.32 0.48 85 1014.4
20260503175703 13 360 3.2 6.4 0.00 1.32 0.48 85 1014.6
20260503175603 13 360 3.2 6.4 0.00 1.32 0.48 85 1014.6
20260503175503 13 360 3.2 6.4 0.00 1.32 0.48 85 1014.5
20260503175403 13 359 3.2 6.4 0.00 1.32 0.48 85 1014.3
20260503175304 13 359 3.2 6.4 0.00 1.32 0.48 85 1014.5
20260503175203 13 359 1.6 6.4 0.00 1.32 0.48 85 1014.6
20260503175103 13 359 1.6 6.4 0.00 1.32 0.48 85 1014.5
20260503175003 13 359 1.6 6.4 0.00 1.32 0.48 85 1014.5
20260503174903 13 358 1.6 6.4 0.00 1.32 0.48 85 1014.6
20260503174803 13 356 1.6 4.8 0.00 1.32 0.48 85 1014.4
20260503174724 13 358 1.6 4.8 0.00 1.32 0.48 85 1014.5
20260503174603 13 4 1.6 3.2 0.00 1.32 0.48 85 1014.4
20260503174503 13 3 1.6 3.2 0.00 1.32 0.48 85 1014.6
20260503174424 13 3 1.6 3.2 0.00 1.32 0.48 85 1014.6
20260503174303 13 2 1.6 4.8 0.00 1.32 0.48 84 1014.4
20260503174203 13 1 1.6 4.8 0.00 1.32 0.48 84 1014.4
20260503174103 13 1 1.6 4.8 0.00 1.32 0.48 84 1014.4
20260503174003 13 360 3.2 4.8 0.00 1.32 0.48 84 1014.5
20260503173903 13 360 3.2 4.8 0.00 1.32 0.48 84 1014.5
20260503173803 13 360 3.2 4.8 0.00 1.32 0.48 84 1014.3
20260503173703 13 360 3.2 4.8 0.00 1.32 0.48 83 1014.5
20260503173603 13 360 3.2 4.8 0.00 1.32 0.48 83 1014.5
20260503173503 13 359 3.2 6.4 0.00 1.32 0.48 83 1014.5
20260503173403 13 358 3.2 6.4 0.00 1.32 0.48 83 1014.5
20260503173303 13 358 3.2 6.4 0.00 1.32 0.48 83 1014.4
20260503173203 13 358 3.2 6.4 0.00 1.32 0.48 83 1014.4
20260503173103 13 357 3.2 6.4 0.00 1.32 0.48 82 1014.5
20260503173003 13 358 3.2 6.4 0.00 1.32 0.48 82 1014.6
20260503172924 14 357 3.2 6.4 0.00 1.32 0.48 82 1014.4
20260503172803 14 357 3.2 6.4 0.00 1.32 0.48 82 1014.6
20260503172703 14 357 3.2 6.4 0.00 1.32 0.48 82 1014.4
20260503172603 14 357 3.2 6.4 0.00 1.35 0.48 81 1014.5
20260503172503 14 358 3.2 6.4 0.00 1.35 0.48 81 1014.3
20260503172403 14 359 3.2 6.4 0.00 1.35 0.48 81 1014.4
20260503172305 14 359 3.2 6.4 0.00 1.35 0.48 81 1014.4
20260503172203 14 358 4.8 6.4 0.00 1.35 0.48 81 1014.5
20260503172103 14 358 4.8 6.4 0.00 1.35 0.48 81 1014.4
20260503172003 15 356 4.8 6.4 0.00 1.35 0.48 80 1014.2
20260503171924 15 356 4.8 6.4 0.00 1.35 0.48 80 1014.2
20260503171803 15 356 4.8 6.4 0.00 1.35 0.48 80 1014.4
20260503171703 15 356 4.8 9.7 0.00 1.37 0.48 80 1014.3
20260503171603 15 357 4.8 9.7 0.00 1.37 0.48 81 1014.4
20260503171503 15 358 4.8 9.7 0.00 1.37 0.48 81 1014.3
20260503171403 15 357 4.8 9.7 0.00 1.37 0.48 81 1014.2
20260503171324 15 357 4.8 9.7 0.00 1.37 0.48 81 1014.4
20260503171203 15 355 4.8 9.7 0.00 1.40 0.48 81 1014.3
20260503171103 15 355 4.8 9.7 0.00 1.40 0.48 81 1014.1
20260503171003 15 356 4.8 9.7 0.00 1.42 0.48 81 1014.3
20260503170903 15 357 4.8 9.7 0.00 1.42 0.48 81 1014.2
20260503170803 15 357 4.8 9.7 0.00 1.45 0.48 81 1014.3
20260503170703 15 357 4.8 9.7 0.00 1.45 0.48 81 1014.4
20260503170603 15 356 4.8 6.4 0.00 1.45 0.48 82 1014.3
20260503170503 15 354 4.8 6.4 0.00 1.47 0.48 83 1014.4
20260503170403 14 353 4.8 6.4 0.00 1.47 0.48 83 1014.2
20260503170303 14 353 4.8 6.4 0.00 1.50 0.48 83 1014.2
20260503170203 14 353 4.8 6.4 0.00 1.50 0.48 83 1014.3
20260503170124 14 353 4.8 6.4 0.00 1.52 0.48 83 1014.2
20260503160203 15 346 3.2 11.3 0.00 2.01 0.48 78 1013.9
20260503151003 17 333 3.2 9.7 0.00 2.03 0.48 76 1014.2
20260503150903 17 343 3.2 12.9 0.00 2.03 0.48 76 1014.2
20260503150803 17 353 3.2 12.9 0.00 2.03 0.48 79 1014.2
20260503150703 16 355 4.8 12.9 0.00 2.03 0.48 79 1014.1
20260503150603 16 357 4.8 12.9 0.00 2.03 0.48 79 1014.1
20260503150503 16 357 4.8 12.9 0.00 2.03 0.48 81 1014.2
20260503150403 16 2 4.8 12.9 0.00 2.03 0.48 81 1014.2
20260503150303 16 2 4.8 12.9 0.00 2.03 0.48 80 1014.3
20260503150203 15 1 4.8 12.9 0.00 2.03 0.48 80 1014.3
20260503140303 16 356 3.2 9.7 0.00 2.64 0.48 74 1014.3
20260503140203 16 350 4.8 9.7 0.00 2.64 0.48 76 1014.4
20260503140103 16 351 4.8 9.7 0.00 2.64 0.48 75 1014.4
20260503131403 15 359 3.2 6.4 0.00 2.64 0.48 83 1014.2
20260503131303 15 359 3.2 6.4 0.00 2.64 0.48 83 1014.2
20260503131224 15 359 3.2 6.4 0.00 2.64 0.48 83 1014.2
20260503131124 15 358 3.2 6.4 0.00 2.64 0.48 83 1014.2
20260503131003 15 359 3.2 6.4 0.00 2.64 0.48 84 1014.4
20260503130924 15 359 3.2 6.4 0.00 2.64 0.48 84 1014.4
20260503130803 15 357 3.2 6.4 0.00 2.64 0.48 85 1014.5
20260503130703 15 357 3.2 6.4 0.00 2.64 0.48 85 1014.5
20260503130603 15 358 3.2 6.4 0.00 2.64 0.48 85 1014.3
20260503130524 15 358 3.2 6.4 0.00 2.64 0.48 85 1014.4
20260503130403 15 359 3.2 6.4 0.00 2.64 0.48 84 1014.2
20260503130303 15 359 3.2 6.4 0.00 2.64 0.48 85 1014.4
20260503130203 15 358 3.2 6.4 0.00 2.64 0.48 85 1014.4
20260503130103 15 359 3.2 6.4 0.00 2.64 0.48 84 1014.3
20260503120203 14 3 1.6 3.2 0.00 2.64 0.48 89 1014.6
20260503110802 13 355 1.6 4.8 0.00 2.64 0.48 92 1014.8
20260503110703 13 355 1.6 4.8 0.00 2.64 0.48 93 1014.9
20260503110603 13 355 1.6 3.2 0.00 2.64 0.48 93 1014.8
20260503110503 13 356 1.6 1.6 0.00 2.64 0.48 93 1014.8
20260503110424 13 356 0.0 1.6 0.00 2.64 0.48 93 1014.6
20260503110303 13 357 0.0 1.6 0.00 2.64 0.48 94 1014.8
20260503110203 13 358 0.0 1.6 0.00 2.64 0.48 94 1014.7
20260503100203 13 8 3.2 6.4 0.00 2.64 0.48 99 1014.6
20260503090403 12 12 0.0 3.2 0.00 2.64 0.48 99 1014.4
20260503090303 12 12 0.0 3.2 0.00 2.64 0.48 99 1014.5
20260503090203 12 12 0.0 3.2 0.00 2.64 0.48 99 1014.5
20260503081603 12 24 0.0 1.6 0.03 2.67 0.48 99 1014.5
20260503081503 12 18 0.0 1.6 0.03 2.67 0.48 99 1014.6
20260503081403 12 18 0.0 1.6 0.03 2.67 0.48 99 1014.7
20260503081303 12 18 0.0 1.6 0.03 2.67 0.48 99 1014.6
20260503081203 12 20 0.0 1.6 0.03 2.67 0.48 99 1014.4
20260503081124 12 20 0.0 1.6 0.03 2.67 0.48 99 1014.4
20260503081003 12 20 0.0 1.6 0.03 2.67 0.48 99 1014.4
20260503080903 12 20 0.0 1.6 0.03 2.67 0.48 99 1014.7
20260503080824 12 20 0.0 1.6 0.03 2.67 0.48 99 1014.5
20260503080703 12 20 0.0 1.6 0.03 2.67 0.48 99 1014.5
20260503080603 12 20 0.0 1.6 0.03 2.67 0.48 99 1014.5
20260503080503 12 20 0.0 1.6 0.03 2.67 0.48 99 1014.4
20260503080424 12 20 0.0 1.6 0.03 2.67 0.48 99 1014.4
20260503080303 12 20 0.0 1.6 0.03 2.67 0.48 99 1014.6
20260503080203 12 20 0.0 1.6 0.03 2.67 0.48 99 1014.4
20260503072903 11 0 0.0 0.0 0.03 2.67 0.48 99 1014.3
20260503072824 11 0 0.0 0.0 0.03 2.67 0.48 99 1014.4
20260503072703 11 0 0.0 0.0 0.03 2.67 0.48 99 1014.4
20260503072624 11 0 0.0 0.0 0.03 2.67 0.48 99 1014.4
20260503072503 11 20 0.0 1.6 0.03 2.67 0.48 99 1014.4
20260503072403 11 20 0.0 1.6 0.03 2.67 0.48 99 1014.4
20260503072305 11 17 0.0 3.2 0.03 2.67 0.48 99 1014.3
20260503072203 11 17 0.0 3.2 0.03 2.67 0.48 99 1014.4
20260503072103 11 17 0.0 3.2 0.03 2.67 0.48 99 1014.2
20260503072024 11 17 1.6 3.2 0.03 2.67 0.48 99 1014.3
20260503071903 11 16 1.6 3.2 0.03 2.67 0.48 99 1014.3
20260503071803 11 19 1.6 3.2 0.03 2.67 0.48 99 1014.2
20260503071703 11 20 1.6 4.8 0.03 2.67 0.48 99 1014.3
20260503071603 11 19 1.6 4.8 0.00 2.64 0.46 99 1014.1
20260503071503 11 19 1.6 4.8 0.00 2.64 0.46 99 1014.2
20260503071403 11 17 1.6 4.8 0.00 2.64 0.46 99 1014.3
20260503071303 11 15 3.2 4.8 0.00 2.64 0.46 99 1014.2
20260503071203 11 16 1.6 4.8 0.00 2.64 0.46 99 1014.2
20260503071103 11 16 1.6 4.8 0.00 2.64 0.46 99 1014.2
20260503071003 11 17 1.6 4.8 0.00 2.64 0.46 99 1014.3
20260503070924 11 17 1.6 4.8 0.00 2.64 0.46 99 1014.3
20260503070824 11 19 1.6 4.8 0.00 2.64 0.46 99 1014.2
20260503070724 11 18 1.6 4.8 0.00 2.64 0.46 99 1014.3
20260503070624 11 17 1.6 3.2 0.00 2.64 0.46 99 1014.4
20260503070503 11 18 1.6 3.2 0.00 2.64 0.46 99 1014.3
20260503070403 11 18 1.6 3.2 0.00 2.64 0.46 99 1014.1
20260503070303 12 20 1.6 3.2 0.00 2.64 0.46 99 1014.2
20260503070224 12 29 0.0 1.6 0.00 2.64 0.46 99 1014.3
20260503060303 11 0 0.0 0.0 0.00 2.64 0.46 99 1014.0
20260503060203 11 0 0.0 0.0 0.00 2.64 0.46 99 1013.8
20260503060103 11 0 0.0 0.0 0.00 2.64 0.46 99 1014.0
20260503055103 11 0 0.0 0.0 0.00 2.64 0.46 99 1013.7
20260503055003 11 0 0.0 0.0 0.00 2.64 0.46 99 1013.7
20260503054903 11 0 0.0 0.0 0.00 2.64 0.46 99 1013.7
20260503054803 11 0 0.0 0.0 0.00 2.64 0.46 99 1013.7
20260503054703 11 0 0.0 0.0 0.00 2.64 0.46 99 1013.8
20260503054603 11 0 0.0 0.0 0.00 2.64 0.46 99 1013.9
20260503054503 11 0 0.0 0.0 0.00 2.64 0.46 99 1013.7
20260503054403 11 0 0.0 0.0 0.00 2.64 0.46 99 1013.6
20260503054324 11 0 0.0 0.0 0.00 2.64 0.46 99 1013.9
20260503054203 11 0 0.0 0.0 0.00 2.64 0.46 99 1013.8
20260503054103 11 0 0.0 0.0 0.00 2.64 0.46 99 1013.7
20260503054003 11 0 0.0 0.0 0.00 2.64 0.46 99 1013.7
20260503053924 11 0 0.0 0.0 0.00 2.64 0.46 99 1013.7
20260503053824 11 0 0.0 0.0 0.00 2.64 0.46 99 1013.7
20260503053703 11 0 0.0 0.0 0.00 2.64 0.46 99 1013.8
20260503053603 11 0 0.0 0.0 0.00 2.64 0.46 99 1013.8
20260503053503 11 0 0.0 0.0 0.00 2.64 0.46 99 1013.7
20260503053424 11 0 0.0 0.0 0.00 2.64 0.46 99 1013.7
20260503053324 11 0 0.0 0.0 0.00 2.64 0.46 99 1013.6
20260503053203 11 40 0.0 1.6 0.00 2.64 0.46 99 1013.6
20260503053103 11 40 0.0 1.6 0.00 2.64 0.46 99 1013.8
20260503053003 11 40 0.0 1.6 0.00 2.64 0.46 99 1013.6
20260503052903 11 40 0.0 1.6 0.00 2.64 0.46 99 1013.7
20260503052824 11 40 0.0 1.6 0.00 2.64 0.46 99 1013.7
20260503052703 11 40 0.0 1.6 0.00 2.64 0.46 99 1013.7
20260503052603 11 40 0.0 1.6 0.00 2.64 0.46 99 1013.7
20260503052503 11 39 0.0 1.6 0.00 2.64 0.46 99 1013.7
20260503052403 11 39 0.0 1.6 0.00 2.64 0.46 99 1013.7
20260503052305 11 39 0.0 1.6 0.00 2.64 0.46 99 1013.7
20260503052203 11 37 0.0 1.6 0.00 2.64 0.46 99 1013.8
20260503052103 11 37 0.0 1.6 0.00 2.64 0.46 99 1013.8
20260503052003 11 36 0.0 1.6 0.00 2.64 0.46 99 1013.6
20260503051924 11 36 0.0 1.6 0.00 2.64 0.46 99 1013.6
20260503051803 11 36 0.0 1.6 0.00 2.64 0.46 99 1013.7
20260503051703 11 36 0.0 1.6 0.00 2.64 0.46 99 1013.7
20260503051624 11 36 0.0 1.6 0.00 2.64 0.46 99 1013.6
20260503051503 11 35 0.0 1.6 0.00 2.64 0.46 99 1013.7
20260503051403 11 33 0.0 1.6 0.00 2.64 0.46 99 1013.7
20260503051303 11 33 0.0 1.6 0.00 2.64 0.46 99 1013.7
20260503051203 11 31 0.0 1.6 0.00 2.64 0.46 99 1013.6
20260503051124 11 0 0.0 0.0 0.00 2.64 0.46 99 1013.7
20260503051003 11 0 0.0 0.0 0.00 2.64 0.46 99 1013.6
20260503050903 11 0 0.0 0.0 0.00 2.64 0.46 99 1013.6
20260503050803 11 0 0.0 0.0 0.00 2.64 0.46 99 1013.8
20260503050703 11 0 0.0 0.0 0.00 2.64 0.46 99 1013.6
20260503050603 11 0 0.0 0.0 0.00 2.64 0.46 99 1013.8
20260503050524 11 0 0.0 0.0 0.00 2.64 0.46 99 1013.8
20260503050403 11 0 0.0 0.0 0.00 2.64 0.46 99 1013.7
20260503050324 11 0 0.0 0.0 0.00 2.64 0.46 99 1013.7
20260503050203 11 0 0.0 0.0 0.00 2.64 0.46 99 1013.7
20260503050024 11 0 0.0 0.0 0.00 2.64 0.46 99 1013.6
20260503045903 11 0 0.0 0.0 0.00 2.64 0.46 99 1013.6
20260503045803 11 0 0.0 0.0 0.00 2.64 0.46 99 1013.5
20260503045703 11 0 0.0 0.0 0.00 2.64 0.46 99 1013.7
20260503045603 11 0 0.0 0.0 0.00 2.64 0.46 99 1013.5
20260503045524 11 0 0.0 0.0 0.00 2.64 0.46 99 1013.6
20260503045403 11 0 0.0 0.0 0.00 2.64 0.46 99 1013.6
20260503045305 11 0 0.0 0.0 0.00 2.64 0.46 99 1013.6
20260503045203 11 0 0.0 0.0 0.00 2.64 0.46 99 1013.5
20260503045103 11 0 0.0 0.0 0.00 2.64 0.46 99 1013.6
20260503045003 11 0 0.0 0.0 0.00 2.64 0.46 99 1013.6
20260503044903 11 31 0.0 1.6 0.00 2.64 0.46 99 1013.7
20260503044803 11 31 0.0 1.6 0.00 2.64 0.46 99 1013.6
20260503044703 11 31 0.0 1.6 0.00 2.64 0.46 99 1013.6
20260503044603 11 31 0.0 1.6 0.00 2.64 0.46 99 1013.7
20260503044524 11 31 0.0 1.6 0.00 2.64 0.46 99 1013.4
20260503044403 11 31 0.0 1.6 0.00 2.64 0.46 99 1013.6
20260503044303 11 31 0.0 1.6 0.00 2.64 0.46 99 1013.7
20260503044203 11 31 0.0 1.6 0.00 2.64 0.46 99 1013.6
20260503044103 11 31 0.0 1.6 0.00 2.64 0.46 99 1013.7
20260503044003 11 31 0.0 1.6 0.00 2.64 0.46 99 1013.7
20260503043903 11 31 0.0 1.6 0.00 2.64 0.46 99 1013.8
20260503043803 11 0 0.0 0.0 0.00 2.64 0.46 99 1013.7
20260503043703 11 0 0.0 0.0 0.00 2.64 0.46 99 1013.8
20260503043603 11 0 0.0 0.0 0.00 2.64 0.46 99 1013.6
20260503043503 11 0 0.0 0.0 0.00 2.64 0.46 99 1013.5
20260503043424 11 0 0.0 0.0 0.00 2.64 0.46 99 1013.6
20260503043303 11 0 0.0 0.0 0.00 2.64 0.46 99 1013.6
20260503043224 11 0 0.0 0.0 0.00 2.64 0.46 99 1013.6
20260503043103 11 0 0.0 0.0 0.00 2.64 0.46 99 1013.7
20260503043003 11 0 0.0 0.0 0.00 2.64 0.46 99 1013.8
20260503042903 11 0 0.0 0.0 0.00 2.64 0.46 99 1013.7
20260503042803 11 0 0.0 0.0 0.00 2.64 0.46 99 1013.6
20260503042703 11 0 0.0 0.0 0.00 2.64 0.46 99 1013.6
20260503042603 11 0 0.0 0.0 0.00 2.64 0.46 99 1013.6
20260503042503 11 0 0.0 0.0 0.00 2.64 0.46 99 1013.6
20260503042424 11 0 0.0 0.0 0.00 2.64 0.46 99 1013.7
20260503042324 11 0 0.0 0.0 0.00 2.64 0.46 99 1013.7
20260503042203 11 0 0.0 0.0 0.00 2.64 0.46 99 1013.7
20260503042103 11 0 0.0 0.0 0.00 2.64 0.46 99 1013.7
20260503042003 11 0 0.0 0.0 0.00 2.64 0.46 99 1013.6
20260503041924 11 0 0.0 0.0 0.00 2.64 0.46 99 1013.7
20260503041803 11 0 0.0 0.0 0.00 2.64 0.46 99 1013.8
20260503041703 11 0 0.0 0.0 0.00 2.64 0.46 99 1013.7
20260503041603 11 0 0.0 0.0 0.00 2.64 0.46 99 1013.8
20260503041524 11 0 0.0 0.0 0.00 2.64 0.46 99 1013.7
20260503041403 11 0 0.0 0.0 0.00 2.64 0.46 99 1013.6
20260503041303 11 0 0.0 0.0 0.00 2.64 0.46 99 1013.7
20260503041203 11 0 0.0 0.0 0.00 2.64 0.46 99 1013.7
20260503041103 11 0 0.0 0.0 0.03 2.64 0.46 99 1013.6
20260503041003 11 0 0.0 0.0 0.03 2.64 0.46 99 1013.7
20260503040903 11 0 0.0 0.0 0.03 2.64 0.46 99 1013.8
20260503040803 11 0 0.0 0.0 0.03 2.64 0.46 99 1013.7
20260503040703 12 0 0.0 0.0 0.03 2.64 0.46 99 1013.8
20260503040603 12 0 0.0 0.0 0.03 2.64 0.46 99 1013.7
20260503040503 12 0 0.0 0.0 0.03 2.64 0.46 99 1013.8
20260503040403 12 0 0.0 0.0 0.03 2.64 0.46 99 1013.7
20260503040303 12 0 0.0 0.0 0.03 2.64 0.46 99 1013.7
20260503040203 12 0 0.0 0.0 0.03 2.64 0.46 99 1013.7
20260503040103 12 0 0.0 0.0 0.03 2.64 0.46 99 1013.7
20260503040003 12 0 0.0 0.0 0.03 2.64 0.46 99 1013.7
20260503035903 12 0 0.0 0.0 0.03 2.64 0.46 99 1013.7
20260503035803 12 0 0.0 0.0 0.03 2.64 0.46 99 1013.6
20260503035703 12 0 0.0 0.0 0.03 2.64 0.46 99 1013.6
20260503035624 12 0 0.0 0.0 0.03 2.64 0.46 99 1013.6
20260503035503 12 0 0.0 0.0 0.03 2.64 0.46 99 1013.9
20260503035403 12 0 0.0 0.0 0.03 2.64 0.46 99 1013.7
20260503035304 12 0 0.0 0.0 0.03 2.64 0.46 99 1013.8
20260503035224 12 0 0.0 0.0 0.05 2.64 0.46 99 1013.8
20260503035103 12 0 0.0 0.0 0.05 2.64 0.46 99 1013.7
20260503035003 12 0 0.0 0.0 0.05 2.64 0.46 99 1014.0
20260503034924 12 0 0.0 0.0 0.05 2.64 0.46 99 1014.0
20260503034803 12 0 0.0 0.0 0.05 2.64 0.46 99 1013.9
20260503034703 12 0 0.0 0.0 0.05 2.64 0.46 99 1013.9
20260503034624 12 0 0.0 0.0 0.05 2.64 0.46 99 1013.9
20260503034503 12 0 0.0 0.0 0.05 2.64 0.46 99 1013.7
20260503034403 12 31 0.0 1.6 0.05 2.64 0.46 99 1013.9
20260503034303 12 31 0.0 1.6 0.08 2.64 0.46 99 1013.8
20260503034224 12 31 0.0 1.6 0.08 2.64 0.46 99 1013.8
20260503034103 12 31 0.0 1.6 0.08 2.64 0.46 99 1013.9
20260503034003 12 31 0.0 1.6 0.08 2.64 0.46 99 1013.8
20260503033924 12 31 0.0 1.6 0.08 2.64 0.46 99 1013.8
20260503033803 12 31 0.0 1.6 0.08 2.64 0.46 99 1013.9
20260503033703 12 31 0.0 1.6 0.08 2.64 0.46 99 1014.0
20260503033603 12 31 0.0 1.6 0.08 2.64 0.46 99 1014.1
20260503033524 12 31 0.0 1.6 0.08 2.64 0.46 99 1014.1
20260503033424 12 31 0.0 1.6 0.08 2.64 0.46 99 1014.1
20260503033303 12 0 0.0 0.0 0.08 2.64 0.46 99 1014.0
20260503033224 12 0 0.0 0.0 0.08 2.64 0.46 99 1014.0
20260503033103 12 35 0.0 1.6 0.08 2.64 0.46 99 1014.0
20260503033024 12 35 0.0 1.6 0.08 2.64 0.46 99 1013.9
20260503032903 12 35 0.0 1.6 0.08 2.64 0.46 99 1013.9
20260503032803 12 35 0.0 1.6 0.08 2.64 0.46 99 1014.0
20260503032724 12 35 0.0 1.6 0.08 2.64 0.46 99 1014.0
20260503032624 12 36 0.0 1.6 0.08 2.64 0.46 99 1014.0
20260503032503 12 34 0.0 1.6 0.08 2.64 0.46 99 1013.9
20260503032403 12 34 0.0 1.6 0.08 2.64 0.46 99 1014.1
20260503032304 12 34 0.0 1.6 0.08 2.64 0.46 99 1013.9
20260503032224 12 34 0.0 1.6 0.08 2.64 0.46 99 1013.8
20260503032103 12 33 0.0 1.6 0.08 2.64 0.46 99 1013.9
20260503032003 12 33 0.0 1.6 0.08 2.64 0.46 99 1014.1
20260503031903 12 33 0.0 1.6 0.08 2.64 0.46 99 1014.0
20260503031803 12 33 0.0 1.6 0.08 2.64 0.46 99 1014.0
20260503031703 12 33 0.0 1.6 0.08 2.64 0.46 99 1013.9
20260503031624 12 33 0.0 1.6 0.08 2.64 0.46 99 1013.9
20260503031524 12 28 0.0 1.6 0.08 2.64 0.46 99 1013.9
20260503031403 12 27 0.0 1.6 0.08 2.64 0.46 99 1013.9
20260503031303 12 27 0.0 1.6 0.08 2.64 0.46 99 1014.0
20260503031203 12 30 0.0 1.6 0.08 2.64 0.46 99 1014.3
20260503031103 12 34 0.0 1.6 0.05 2.62 0.43 99 1014.0
20260503031003 12 35 0.0 1.6 0.05 2.62 0.43 99 1013.8
20260503030903 12 36 0.0 1.6 0.05 2.62 0.43 99 1013.9
20260503030803 12 34 0.0 1.6 0.05 2.62 0.43 99 1013.9
20260503030703 12 33 0.0 1.6 0.05 2.62 0.43 99 1013.9
20260503030603 12 33 0.0 1.6 0.05 2.62 0.43 99 1014.1
20260503030503 12 34 0.0 1.6 0.05 2.62 0.43 99 1014.0
20260503030403 12 34 0.0 1.6 0.05 2.62 0.43 99 1013.9
20260503030324 12 34 0.0 1.6 0.05 2.62 0.43 99 1013.9
20260503030203 12 34 0.0 1.6 0.05 2.62 0.43 99 1013.8
20260503030124 12 34 0.0 1.6 0.05 2.62 0.43 99 1013.8
20260503030024 12 33 0.0 1.6 0.05 2.62 0.43 99 1014.0
20260503025903 12 26 0.0 1.6 0.05 2.62 0.43 99 1014.0
20260503025803 12 26 0.0 1.6 0.05 2.62 0.43 99 1014.0
20260503025703 12 26 0.0 1.6 0.05 2.62 0.43 99 1014.2
20260503025603 12 0 0.0 0.0 0.05 2.62 0.43 99 1014.0
20260503025503 12 0 0.0 0.0 0.05 2.62 0.43 99 1014.0
20260503025403 12 0 0.0 0.0 0.05 2.62 0.43 99 1014.0
20260503025305 12 0 0.0 0.0 0.05 2.62 0.43 99 1014.0
20260503025203 12 0 0.0 0.0 0.03 2.59 0.41 99 1014.1
20260503025103 12 0 0.0 0.0 0.03 2.59 0.41 99 1014.0
20260503025003 12 0 0.0 0.0 0.03 2.59 0.41 99 1014.1
20260503024903 12 0 0.0 0.0 0.03 2.59 0.41 99 1013.9
20260503024803 12 0 0.0 0.0 0.03 2.59 0.41 99 1014.0
20260503024703 12 0 0.0 0.0 0.03 2.59 0.41 99 1013.9
20260503024603 12 0 0.0 0.0 0.03 2.59 0.41 99 1014.1
20260503024503 12 0 0.0 0.0 0.03 2.59 0.41 99 1014.0
20260503024403 12 0 0.0 0.0 0.03 2.59 0.41 99 1014.0
20260503024303 12 0 0.0 0.0 0.03 2.57 0.38 99 1014.0
20260503024203 12 0 0.0 0.0 0.03 2.57 0.38 99 1014.0
20260503024103 12 0 0.0 0.0 0.03 2.57 0.38 99 1014.0
20260503024024 12 0 0.0 0.0 0.05 2.57 0.38 99 1014.0
20260503023903 12 0 0.0 0.0 0.05 2.57 0.38 99 1014.2
20260503023803 12 0 0.0 0.0 0.05 2.57 0.38 99 1014.0
20260503023703 12 0 0.0 0.0 0.05 2.57 0.38 99 1014.1
20260503023603 12 0 0.0 0.0 0.05 2.57 0.38 99 1014.1
20260503023503 12 0 0.0 0.0 0.05 2.57 0.38 99 1014.1
20260503023424 12 0 0.0 0.0 0.05 2.57 0.38 99 1014.0
20260503023303 12 0 0.0 0.0 0.05 2.57 0.38 99 1014.1
20260503023203 12 0 0.0 0.0 0.05 2.57 0.38 99 1014.1
20260503023103 12 0 0.0 0.0 0.08 2.57 0.38 99 1014.0
20260503023003 12 0 0.0 0.0 0.08 2.57 0.38 99 1014.2
20260503022904 12 0 0.0 0.0 0.08 2.57 0.38 99 1013.9
20260503022803 12 0 0.0 0.0 0.08 2.57 0.38 99 1014.0
20260503022703 12 0 0.0 0.0 0.08 2.57 0.38 99 1014.0
20260503022603 12 0 0.0 0.0 0.10 2.57 0.38 99 1014.0
20260503022503 12 0 0.0 0.0 0.10 2.57 0.38 99 1014.0
20260503022424 12 0 0.0 0.0 0.10 2.57 0.38 99 1014.0
20260503022305 12 0 0.0 0.0 0.10 2.57 0.38 99 1014.2
20260503022203 12 0 0.0 0.0 0.10 2.57 0.38 99 1014.2
20260503022103 12 0 0.0 0.0 0.10 2.57 0.38 99 1013.9
20260503022025 12 0 0.0 0.0 0.10 2.57 0.38 99 1013.9
20260503021903 12 0 0.0 0.0 0.10 2.57 0.38 99 1014.2
20260503021803 12 0 0.0 0.0 0.10 2.57 0.38 99 1014.0
20260503021703 12 0 0.0 0.0 0.13 2.57 0.38 99 1013.9
20260503021603 12 0 0.0 0.0 0.13 2.57 0.38 99 1014.1
20260503021503 12 0 0.0 0.0 0.13 2.57 0.38 99 1014.0
20260503021403 12 0 0.0 0.0 0.13 2.57 0.38 99 1014.1
20260503021324 12 0 0.0 0.0 0.13 2.57 0.38 99 1014.1
20260503021203 12 0 0.0 0.0 0.13 2.57 0.38 99 1014.3
20260503021103 12 0 0.0 0.0 0.13 2.57 0.38 99 1014.2
20260503021003 12 0 0.0 0.0 0.13 2.57 0.38 99 1014.1
20260503020903 12 0 0.0 0.0 0.13 2.57 0.38 99 1014.2
20260503020803 12 0 0.0 0.0 0.13 2.57 0.38 99 1014.2
20260503020703 12 0 0.0 0.0 0.13 2.57 0.38 99 1014.1
20260503020603 12 0 0.0 0.0 0.13 2.57 0.38 99 1014.1
20260503020524 12 0 0.0 0.0 0.13 2.57 0.38 99 1014.2
20260503020403 12 0 0.0 0.0 0.13 2.57 0.38 99 1014.2
20260503020303 12 0 0.0 0.0 0.13 2.57 0.38 99 1014.2
20260503020203 12 0 0.0 0.0 0.13 2.57 0.38 99 1014.2
20260503020003 12 0 0.0 0.0 0.13 2.57 0.38 99 1014.2
20260503015903 12 0 0.0 0.0 0.13 2.57 0.38 99 1014.3
20260503015803 12 0 0.0 0.0 0.13 2.57 0.38 99 1014.2
20260503015703 12 0 0.0 0.0 0.13 2.57 0.38 99 1014.3
20260503015624 12 0 0.0 0.0 0.13 2.57 0.38 99 1014.2
20260503015503 12 0 0.0 0.0 0.13 2.57 0.38 99 1014.2
20260503015403 12 0 0.0 0.0 0.13 2.57 0.38 99 1014.2
20260503015305 12 0 0.0 0.0 0.13 2.57 0.38 99 1014.4
20260503015224 12 0 0.0 0.0 0.13 2.57 0.38 99 1014.4
20260503015103 12 0 0.0 0.0 0.13 2.57 0.38 99 1014.1
20260503015003 12 0 0.0 0.0 0.13 2.57 0.38 99 1014.1
20260503014924 12 0 0.0 0.0 0.13 2.57 0.38 99 1014.3
20260503014803 12 0 0.0 0.0 0.13 2.57 0.38 99 1014.4
20260503014703 12 0 0.0 0.0 0.13 2.57 0.38 99 1014.6
20260503014603 12 0 0.0 0.0 0.13 2.57 0.38 99 1014.3
20260503014503 12 0 0.0 0.0 0.13 2.57 0.38 99 1014.3
20260503014404 12 0 0.0 0.0 0.13 2.57 0.38 99 1014.4
20260503014324 12 0 0.0 0.0 0.10 2.54 0.36 99 1014.3
20260503014203 12 0 0.0 0.0 0.10 2.54 0.36 99 1014.3
20260503014103 12 0 0.0 0.0 0.10 2.54 0.36 99 1014.4
20260503014003 12 0 0.0 0.0 0.08 2.51 0.33 99 1014.3
20260503013903 12 0 0.0 0.0 0.08 2.51 0.33 99 1014.5
20260503013824 12 0 0.0 0.0 0.08 2.51 0.33 99 1014.5
20260503013703 12 0 0.0 0.0 0.08 2.51 0.33 99 1014.6
20260503013604 12 0 0.0 0.0 0.08 2.51 0.33 99 1014.6
20260503013503 12 0 0.0 0.0 0.08 2.51 0.33 99 1014.3
20260503013404 12 0 0.0 0.0 0.08 2.51 0.33 99 1014.3
20260503013303 12 0 0.0 0.0 0.08 2.51 0.33 99 1014.3
20260503013203 12 0 0.0 0.0 0.10 2.51 0.33 99 1014.6
20260503013103 12 0 0.0 0.0 0.08 2.49 0.33 99 1014.5
20260503013003 12 0 0.0 0.0 0.08 2.49 0.30 99 1014.5
20260503012903 12 0 0.0 0.0 0.08 2.49 0.30 99 1014.5
20260503012803 12 0 0.0 0.0 0.08 2.49 0.30 99 1014.5
20260503012703 12 0 0.0 0.0 0.10 2.49 0.30 99 1014.6
20260503012604 12 0 0.0 0.0 0.08 2.46 0.28 99 1014.5
20260503012503 12 0 0.0 0.0 0.08 2.46 0.28 99 1014.7
20260503012424 12 0 0.0 0.0 0.08 2.46 0.28 99 1014.5
20260503012305 12 0 0.0 0.0 0.08 2.46 0.28 99 1014.5
20260503012224 12 0 0.0 0.0 0.08 2.46 0.28 99 1014.5
20260503012103 12 23 0.0 1.6 0.08 2.46 0.28 99 1014.5
20260503012003 12 23 0.0 1.6 0.08 2.46 0.28 99 1014.5
20260503011903 12 23 0.0 1.6 0.08 2.46 0.28 99 1014.6
20260503011803 12 23 0.0 1.6 0.08 2.46 0.28 99 1014.6
20260503011703 12 23 0.0 1.6 0.05 2.44 0.25 99 1014.6
20260503011624 12 23 0.0 1.6 0.05 2.44 0.25 99 1014.6
20260503011503 12 23 0.0 1.6 0.05 2.44 0.25 99 1014.8
20260503011424 12 23 0.0 1.6 0.05 2.44 0.25 99 1014.8
20260503011303 12 23 0.0 1.6 0.08 2.44 0.25 99 1014.7
20260503011203 12 23 0.0 1.6 0.08 2.44 0.25 99 1014.8
20260503011104 12 0 0.0 0.0 0.08 2.44 0.25 99 1014.6
20260503011003 12 0 0.0 0.0 0.08 2.44 0.25 99 1014.7
20260503010903 12 31 0.0 1.6 0.08 2.44 0.25 99 1014.8
20260503010803 12 31 0.0 1.6 0.08 2.44 0.25 99 1014.7
20260503010703 12 31 0.0 1.6 0.08 2.44 0.25 99 1014.6
20260503010624 12 31 0.0 1.6 0.08 2.44 0.25 99 1014.9
20260503010503 12 31 0.0 1.6 0.10 2.44 0.25 99 1014.7
20260503010403 12 31 0.0 1.6 0.10 2.44 0.25 99 1014.8
20260503010324 12 31 0.0 1.6 0.13 2.44 0.25 99 1014.8
20260503010204 12 34 0.0 1.6 0.13 2.44 0.25 99 1014.6
20260503010103 12 34 0.0 1.6 0.15 2.44 0.25 99 1014.7
20260503010003 12 34 0.0 1.6 0.15 2.44 0.25 99 1014.6
20260503005924 12 34 0.0 1.6 0.18 2.44 0.25 99 1014.6
20260503005803 12 37 0.0 1.6 0.18 2.44 0.25 99 1014.8
20260503005724 12 37 0.0 1.6 0.20 2.44 0.25 99 1014.9
20260503005603 12 37 0.0 1.6 0.20 2.44 0.25 99 1014.8
20260503005503 12 37 0.0 1.6 0.20 2.44 0.25 99 1014.8
20260503005403 12 37 0.0 1.6 0.20 2.44 0.25 99 1014.9
20260503005304 12 37 0.0 1.6 0.20 2.44 0.25 99 1014.8
20260503005203 12 24 0.0 1.6 0.20 2.44 0.25 99 1014.9
20260503005103 12 24 0.0 1.6 0.23 2.44 0.25 99 1014.9
20260503005004 12 24 0.0 1.6 0.23 2.44 0.25 99 1015.0
20260503004903 12 24 0.0 1.6 0.23 2.44 0.25 99 1014.9
20260503004803 12 24 0.0 1.6 0.23 2.44 0.25 99 1014.7
20260503004703 12 24 0.0 1.6 0.23 2.44 0.25 99 1014.8
20260503004603 12 24 0.0 1.6 0.23 2.44 0.25 99 1014.7
20260503004503 12 24 0.0 1.6 0.23 2.44 0.25 99 1015.0
20260503004424 12 24 0.0 1.6 0.23 2.44 0.25 99 1015.0
20260503004303 12 24 0.0 1.6 0.23 2.44 0.25 99 1014.8
20260503004203 12 24 0.0 1.6 0.23 2.44 0.25 99 1014.8
20260503004103 12 24 0.0 1.6 0.23 2.44 0.25 99 1015.0
20260503004003 12 24 0.0 1.6 0.23 2.44 0.25 99 1014.8
20260503003903 12 24 0.0 1.6 0.23 2.44 0.25 99 1014.8
20260503003804 12 24 0.0 1.6 0.23 2.44 0.25 99 1014.8
20260503003724 12 24 0.0 1.6 0.23 2.44 0.25 99 1014.9
20260503003603 12 24 0.0 1.6 0.23 2.44 0.25 99 1014.8
20260503003503 12 24 0.0 1.6 0.25 2.44 0.25 99 1014.7
20260503003403 12 23 0.0 1.6 0.25 2.44 0.25 99 1015.0
20260503003303 12 23 0.0 3.2 0.25 2.44 0.25 99 1015.0
20260503003203 12 23 0.0 3.2 0.23 2.41 0.23 99 1014.9
20260503003103 12 22 1.6 3.2 0.23 2.41 0.23 99 1014.7
20260503003024 12 22 1.6 3.2 0.23 2.41 0.23 99 1014.8
20260503002903 12 22 1.6 3.2 0.23 2.41 0.23 99 1015.0
20260503002824 12 22 1.6 3.2 0.23 2.41 0.23 99 1015.0
20260503002703 12 22 1.6 3.2 0.20 2.39 0.20 99 1015.0
20260503002603 12 23 1.6 3.2 0.20 2.39 0.20 99 1015.0
20260503002503 12 23 1.6 3.2 0.20 2.39 0.20 99 1015.1
20260503002403 12 23 1.6 3.2 0.20 2.39 0.20 99 1015.0
20260503002305 12 23 1.6 3.2 0.20 2.39 0.20 99 1015.0
20260503002224 12 23 1.6 3.2 0.20 2.39 0.20 99 1015.0
20260503002103 12 23 1.6 3.2 0.20 2.39 0.20 99 1014.9
20260503002003 12 25 1.6 3.2 0.20 2.39 0.20 99 1014.9
20260503001903 12 25 1.6 3.2 0.20 2.39 0.20 99 1014.8
20260503001803 12 23 0.0 1.6 0.20 2.39 0.20 99 1015.1
20260503001703 12 23 0.0 1.6 0.20 2.39 0.20 99 1015.1
20260503001603 12 23 1.6 3.2 0.20 2.39 0.20 99 1015.1
20260503001503 12 22 1.6 3.2 0.20 2.39 0.20 99 1015.2
20260503001424 12 22 1.6 3.2 0.20 2.39 0.20 99 1015.2
20260503001303 12 22 1.6 3.2 0.18 2.36 0.18 99 1015.3
20260503001203 12 22 1.6 3.2 0.18 2.36 0.18 99 1015.2
20260503001103 12 22 1.6 3.2 0.18 2.36 0.18 99 1015.2
20260503001003 12 23 1.6 3.2 0.18 2.36 0.18 99 1015.2
20260503000924 12 24 1.6 3.2 0.18 2.36 0.18 99 1015.3
20260503000825 12 26 1.6 3.2 0.18 2.36 0.18 99 1015.3
20260503000703 12 26 1.6 3.2 0.18 2.36 0.18 99 1015.1
20260503000603 12 27 1.6 3.2 0.18 2.36 0.18 99 1015.1
20260503000503 12 27 1.6 3.2 0.15 2.34 0.15 99 1015.1
20260503000403 12 28 1.6 3.2 0.15 2.34 0.15 99 1015.1
20260503000304 12 30 0.0 1.6 0.13 2.31 0.13 99 1015.3
20260503000204 12 31 0.0 1.6 0.13 2.31 0.13 99 1015.1
20260503000003 12 39 0.0 1.6 0.10 2.29 0.10 99 1015.2
20260502235902 12 41 0.0 1.6 0.08 2.26 0.08 99 1015.1
20260502235803 12 41 0.0 1.6 0.08 2.26 0.08 99 1015.1
20260502235724 12 45 0.0 1.6 0.05 2.24 0.05 99 1015.1
20260502235624 12 45 0.0 1.6 0.05 2.24 0.05 99 1015.1
20260502235503 12 45 0.0 1.6 0.05 2.24 0.05 99 1015.2
20260502235403 12 45 0.0 1.6 0.05 2.24 0.05 99 1015.3
20260502235304 12 40 0.0 1.6 0.05 2.24 0.05 99 1015.2
20260502235202 12 38 0.0 1.6 0.05 2.24 0.05 99 1015.1
20260502235103 12 38 0.0 1.6 0.03 2.21 0.03 99 1015.1
20260502235002 12 36 0.0 1.6 0.03 2.21 0.03 99 1015.3
20260502234903 12 31 0.0 1.6 0.03 2.21 0.03 99 1015.3
20260502234824 12 31 0.0 1.6 0.03 2.21 0.03 99 1015.2
20260502234702 12 31 0.0 1.6 0.03 2.21 0.03 99 1015.3
20260502234603 12 31 0.0 1.6 0.03 2.21 0.03 99 1015.2
20260502234523 12 31 0.0 1.6 0.03 2.21 0.03 99 1015.2
20260502234402 12 31 0.0 1.6 0.03 2.21 0.03 99 1015.2
20260502234303 12 31 0.0 1.6 0.03 2.21 0.03 99 1015.2
20260502234203 12 0 0.0 0.0 0.03 2.21 0.03 99 1015.2
20260502234102 12 0 0.0 0.0 0.03 2.21 0.03 99 1015.1
20260502234003 12 0 0.0 0.0 0.03 2.21 0.03 99 1015.4
20260502233902 12 0 0.0 0.0 0.03 2.21 0.03 99 1015.4
20260502233802 12 0 0.0 0.0 0.03 2.21 0.03 99 1015.4
20260502233723 12 0 0.0 0.0 0.03 2.21 0.03 99 1015.3
20260502233602 12 0 0.0 0.0 0.03 2.21 0.03 99 1015.3
20260502233503 12 0 0.0 0.0 0.00 2.18 0.00 99 1015.4
20260502233403 12 0 0.0 0.0 0.00 2.18 0.00 99 1015.2
20260502233303 12 0 0.0 0.0 0.00 2.18 0.00 99 1015.4
20260502233203 12 0 0.0 0.0 0.00 2.18 0.00 99 1015.5
20260502233103 12 0 0.0 0.0 0.00 2.18 0.00 99 1015.6
20260502233002 12 0 0.0 0.0 0.00 2.18 0.00 99 1015.3
20260502232902 12 0 0.0 0.0 0.00 2.18 0.00 99 1015.4
20260502232824 12 0 0.0 0.0 0.00 2.18 0.00 99 1015.4
20260502232702 12 0 0.0 0.0 0.00 2.18 0.00 99 1015.3
20260502232603 12 0 0.0 0.0 0.00 2.18 0.00 99 1015.3
20260502232503 12 0 0.0 0.0 0.00 2.18 0.00 99 1015.4
20260502232402 12 0 0.0 0.0 0.00 2.18 0.00 99 1015.2
20260502232304 12 0 0.0 0.0 0.00 2.18 0.00 99 1015.2
20260502232203 12 0 0.0 0.0 0.00 2.18 0.00 99 1015.3
20260502232103 12 0 0.0 0.0 0.00 2.18 0.00 99 1015.4
20260502232002 12 0 0.0 0.0 0.00 2.18 0.00 99 1015.3
20260502231924 12 0 0.0 0.0 0.00 2.18 0.00 99 1015.4
20260502231823 12 0 0.0 0.0 0.00 2.18 0.00 99 1015.3
20260502231703 12 0 0.0 0.0 0.00 2.18 0.00 99 1015.4
20260502231603 12 0 0.0 0.0 0.00 2.18 0.00 99 1015.3
20260502231503 12 0 0.0 0.0 0.00 2.18 0.00 99 1015.2
20260502231402 12 0 0.0 0.0 0.00 2.18 0.00 99 1015.4
20260502231302 12 0 0.0 0.0 0.00 2.18 0.00 99 1015.4
20260502231203 12 0 0.0 0.0 0.00 2.18 0.00 99 1015.3
20260502231102 12 0 0.0 0.0 0.00 2.18 0.00 99 1015.4
20260502231003 12 0 0.0 0.0 0.00 2.18 0.00 99 1015.4
20260502230903 12 0 0.0 0.0 0.00 2.18 0.00 99 1015.4
20260502230802 12 0 0.0 0.0 0.00 2.18 0.00 99 1015.4
20260502230703 12 0 0.0 0.0 0.00 2.18 0.00 99 1015.5
20260502230603 12 0 0.0 0.0 0.00 2.18 0.00 99 1015.3
20260502230503 12 0 0.0 0.0 0.00 2.18 0.00 99 1015.2
20260502230403 12 0 0.0 0.0 0.00 2.18 0.00 99 1015.3
20260502230303 12 0 0.0 0.0 0.00 2.18 0.00 99 1015.3
20260502230203 12 0 0.0 0.0 0.00 2.18 0.00 99 1015.3
20260502230003 12 0 0.0 0.0 0.00 2.18 0.00 99 1015.4
20260502225903 12 0 0.0 0.0 0.00 2.18 0.00 99 1015.3
20260502225802 12 0 0.0 0.0 0.00 2.18 0.00 99 1015.5
20260502225703 12 0 0.0 0.0 0.00 2.18 0.00 99 1015.4
20260502225602 12 0 0.0 0.0 0.00 2.18 0.00 99 1015.3
20260502225524 12 0 0.0 0.0 0.00 2.18 0.00 99 1015.3
20260502225403 12 0 0.0 0.0 0.00 2.18 0.00 99 1015.4
20260502225304 12 0 0.0 0.0 0.00 2.18 0.00 99 1015.1
20260502225203 12 0 0.0 0.0 0.00 2.18 0.00 99 1015.4
20260502225102 12 0 0.0 0.0 0.00 2.18 0.00 99 1015.3
20260502225002 12 0 0.0 0.0 0.00 2.18 0.00 99 1015.3
20260502224903 12 0 0.0 0.0 0.00 2.18 0.00 99 1015.6
20260502224803 12 0 0.0 0.0 0.00 2.18 0.00 99 1015.4
20260502224703 12 0 0.0 0.0 0.00 2.18 0.00 99 1015.4
20260502224623 12 0 0.0 0.0 0.00 2.18 0.00 99 1015.6
20260502224502 12 0 0.0 0.0 0.00 2.18 0.00 99 1015.5
20260502224403 12 0 0.0 0.0 0.00 2.18 0.00 99 1015.5
20260502224303 12 41 0.0 1.6 0.00 2.18 0.00 99 1015.4
20260502224202 12 41 0.0 1.6 0.00 2.18 0.00 99 1015.6
20260502224103 12 41 0.0 1.6 0.00 2.18 0.00 99 1015.3
20260502224003 12 41 0.0 1.6 0.00 2.18 0.00 99 1015.5
20260502223903 12 41 0.0 1.6 0.00 2.18 0.00 99 1015.6
20260502223803 12 41 0.0 1.6 0.00 2.18 0.00 99 1015.4
20260502223703 12 41 0.0 1.6 0.00 2.18 0.00 99 1015.4
20260502223603 12 41 0.0 1.6 0.00 2.18 0.00 99 1015.4
20260502223502 12 41 0.0 1.6 0.00 2.18 0.00 99 1015.5
20260502223424 12 41 0.0 1.6 0.00 2.18 0.00 99 1015.5
20260502223302 12 41 0.0 1.6 0.00 2.18 0.00 99 1015.5
20260502223203 12 41 0.0 1.6 0.00 2.18 0.00 99 1015.5
20260502223102 12 41 0.0 1.6 0.00 2.18 0.00 99 1015.4
20260502223024 12 41 0.0 1.6 0.00 2.18 0.00 99 1015.5
20260502222902 12 0 0.0 0.0 0.00 2.18 0.00 99 1015.3
20260502222803 12 0 0.0 0.0 0.00 2.18 0.00 99 1015.4
20260502222724 12 0 0.0 0.0 0.00 2.18 0.00 99 1015.5
20260502222603 12 0 0.0 0.0 0.00 2.18 0.00 99 1015.6
20260502222524 12 0 0.0 0.0 0.00 2.18 0.00 99 1015.5
20260502222403 12 0 0.0 0.0 0.00 2.18 0.00 99 1015.4
20260502222305 12 44 0.0 1.6 0.00 2.18 0.00 99 1015.5
20260502222203 12 44 0.0 1.6 0.00 2.18 0.00 99 1015.6
20260502222103 12 46 0.0 1.6 0.00 2.18 0.00 99 1015.5
20260502222024 12 46 0.0 1.6 0.00 2.18 0.00 99 1015.5
20260502221903 12 46 0.0 1.6 0.00 2.18 0.00 99 1015.4
20260502221803 12 46 0.0 1.6 0.00 2.18 0.00 99 1015.5
20260502221702 12 46 0.0 1.6 0.00 2.18 0.00 99 1015.4
20260502221603 12 46 0.0 1.6 0.00 2.18 0.00 99 1015.6
20260502221503 12 45 0.0 1.6 0.00 2.18 0.00 99 1015.6
20260502221403 12 45 0.0 1.6 0.00 2.18 0.00 99 1015.6
20260502221303 12 45 0.0 1.6 0.00 2.18 0.00 99 1015.4
20260502221202 12 45 0.0 1.6 0.00 2.18 0.00 99 1015.4
20260502221103 12 45 0.0 1.6 0.00 2.18 0.00 99 1015.5
20260502221003 12 45 0.0 1.6 0.00 2.18 0.00 99 1015.6
20260502220902 12 45 0.0 1.6 0.00 2.18 0.00 99 1015.5
20260502220803 12 42 0.0 1.6 0.00 2.18 0.00 99 1015.4
20260502220703 12 42 0.0 1.6 0.00 2.18 0.00 99 1015.4
20260502220603 12 42 0.0 1.6 0.00 2.18 0.00 99 1015.5
20260502220503 12 42 0.0 1.6 0.00 2.18 0.00 99 1015.5
20260502220403 12 42 0.0 1.6 0.00 2.18 0.00 99 1015.5
20260502220302 12 42 0.0 1.6 0.00 2.18 0.00 99 1015.6
20260502220224 12 42 0.0 1.6 0.00 2.18 0.00 99 1015.6
20260502220003 12 42 0.0 1.6 0.00 2.18 0.00 99 1015.5
20260502215903 12 42 0.0 1.6 0.00 2.18 2.18 99 1015.4
20260502215802 12 42 0.0 1.6 0.00 2.18 2.18 99 1015.4
20260502215702 12 42 0.0 1.6 0.00 2.18 2.18 99 1015.5
20260502215623 12 0 0.0 0.0 0.00 2.18 2.18 99 1015.4
20260502215503 12 0 0.0 0.0 0.00 2.18 2.18 99 1015.7
20260502215403 12 0 0.0 0.0 0.00 2.18 2.18 99 1015.6
20260502215324 12 0 0.0 0.0 0.00 2.18 2.18 99 1015.6
20260502215203 12 0 0.0 0.0 0.00 2.18 2.18 99 1015.6
20260502215103 12 0 0.0 0.0 0.00 2.18 2.18 99 1015.5
20260502215024 12 0 0.0 0.0 0.00 2.18 2.18 99 1015.5
20260502214903 12 0 0.0 0.0 0.00 2.18 2.18 99 1015.5
20260502214803 12 0 0.0 0.0 0.00 2.18 2.18 99 1015.6
20260502214703 12 0 0.0 0.0 0.00 2.18 2.18 99 1015.6
20260502214603 12 0 0.0 0.0 0.00 2.18 2.18 99 1015.5
20260502214503 12 0 0.0 0.0 0.00 2.18 2.18 99 1015.5
20260502214403 12 0 0.0 0.0 0.00 2.18 2.18 99 1015.4
20260502214303 12 0 0.0 0.0 0.00 2.18 2.18 99 1015.7
20260502214203 12 0 0.0 0.0 0.00 2.18 2.18 99 1015.6
20260502214102 12 0 0.0 0.0 0.00 2.18 2.18 99 1015.5
20260502214003 12 0 0.0 0.0 0.00 2.18 2.18 99 1015.5
20260502213903 12 0 0.0 0.0 0.00 2.18 2.18 99 1015.5
20260502213803 12 0 0.0 0.0 0.00 2.18 2.18 99 1015.4
20260502213703 12 0 0.0 0.0 0.00 2.18 2.18 99 1015.4
20260502213603 12 0 0.0 0.0 0.00 2.18 2.18 99 1015.7
20260502213503 12 0 0.0 0.0 0.00 2.18 2.18 99 1015.7
20260502213403 12 0 0.0 0.0 0.00 2.18 2.18 99 1015.7
20260502213303 12 0 0.0 0.0 0.00 2.18 2.18 99 1015.6
20260502213203 12 0 0.0 0.0 0.00 2.18 2.18 99 1015.5
20260502213103 12 0 0.0 0.0 0.00 2.18 2.18 99 1015.7
20260502213003 12 0 0.0 0.0 0.00 2.18 2.18 99 1015.8
20260502212924 12 0 0.0 0.0 0.00 2.18 2.18 99 1015.6
20260502212824 12 41 0.0 1.6 0.00 2.18 2.18 99 1015.7
20260502212703 12 41 0.0 1.6 0.00 2.18 2.18 99 1015.5
20260502212603 12 41 0.0 1.6 0.00 2.18 2.18 99 1015.7
20260502212503 12 41 0.0 1.6 0.00 2.18 2.18 99 1015.6
20260502212424 12 41 0.0 1.6 0.00 2.18 2.18 99 1015.6
20260502212304 12 41 0.0 1.6 0.00 2.18 2.18 99 1015.5
20260502212203 12 41 0.0 1.6 0.00 2.18 2.18 99 1015.5
20260502212103 12 41 0.0 1.6 0.00 2.18 2.18 99 1015.7
20260502212024 12 41 0.0 1.6 0.00 2.18 2.18 99 1015.6
20260502211903 12 41 0.0 1.6 0.00 2.18 2.18 99 1015.8
20260502211803 12 41 0.0 1.6 0.00 2.18 2.18 99 1015.5
20260502211724 12 41 0.0 1.6 0.00 2.18 2.18 99 1015.7
20260502211603 12 41 0.0 1.6 0.00 2.18 2.18 99 1015.7
20260502211503 12 41 0.0 1.6 0.00 2.18 2.18 99 1015.6
20260502211403 12 41 0.0 1.6 0.00 2.18 2.18 99 1015.7
20260502211303 12 0 0.0 0.0 0.00 2.18 2.18 99 1015.6
20260502211203 12 0 0.0 0.0 0.00 2.18 2.18 99 1015.5
20260502211103 12 0 0.0 0.0 0.00 2.18 2.18 99 1015.7
20260502211003 12 0 0.0 0.0 0.00 2.18 2.18 99 1015.6
20260502210903 12 0 0.0 0.0 0.00 2.18 2.18 99 1015.7
20260502210824 12 0 0.0 0.0 0.00 2.18 2.18 99 1015.7
20260502210703 12 0 0.0 0.0 0.00 2.18 2.18 99 1015.6
20260502210603 12 0 0.0 0.0 0.00 2.18 2.18 99 1015.6
20260502210503 12 0 0.0 0.0 0.00 2.18 2.18 99 1015.7
20260502210403 12 0 0.0 0.0 0.00 2.18 2.18 99 1015.6
20260502210303 12 0 0.0 0.0 0.00 2.18 2.18 99 1015.5
20260502210224 12 0 0.0 0.0 0.00 2.18 2.18 99 1015.8
20260502210003 12 0 0.0 0.0 0.00 2.18 2.18 99 1015.7
20260502205903 12 0 0.0 0.0 0.00 2.18 2.18 99 1015.7
20260502205803 12 0 0.0 0.0 0.00 2.18 2.18 99 1015.7
20260502205702 12 0 0.0 0.0 0.00 2.18 2.18 99 1015.7
20260502205603 12 0 0.0 0.0 0.00 2.18 2.18 99 1015.7
20260502205503 12 0 0.0 0.0 0.00 2.18 2.18 99 1015.5
20260502205403 12 0 0.0 0.0 0.00 2.18 2.18 99 1015.6
20260502205305 12 0 0.0 0.0 0.00 2.18 2.18 99 1015.6
20260502205203 12 46 0.0 1.6 0.00 2.18 2.18 99 1015.7
20260502205103 12 46 0.0 1.6 0.00 2.18 2.18 99 1015.6
20260502205003 12 46 0.0 1.6 0.00 2.18 2.18 99 1015.6
20260502204903 12 46 0.0 1.6 0.00 2.18 2.18 99 1015.5
20260502204803 12 46 0.0 1.6 0.00 2.18 2.18 99 1015.7
20260502204703 12 46 0.0 1.6 0.00 2.18 2.18 99 1015.6
20260502204603 12 46 0.0 1.6 0.00 2.18 2.18 99 1015.6
20260502204503 12 46 0.0 1.6 0.00 2.18 2.18 99 1015.6
20260502204403 12 46 0.0 1.6 0.00 2.18 2.18 99 1015.7
20260502204324 12 46 0.0 1.6 0.00 2.18 2.18 99 1015.6
20260502204203 12 44 0.0 1.6 0.00 2.18 2.18 99 1015.8
20260502204124 12 46 0.0 3.2 0.00 2.18 2.18 99 1015.7
20260502204003 12 46 0.0 3.2 0.03 2.18 2.18 99 1015.7
20260502203903 12 46 0.0 3.2 0.03 2.18 2.18 99 1015.6
20260502203803 12 45 0.0 3.2 0.03 2.18 2.18 99 1015.7
20260502203724 12 45 0.0 3.2 0.05 2.18 2.18 99 1015.7
20260502203603 12 45 1.6 3.2 0.05 2.18 2.18 99 1015.5
20260502203503 12 45 1.6 3.2 0.08 2.18 2.18 99 1015.6
20260502203403 12 45 1.6 3.2 0.08 2.18 2.18 99 1015.6
20260502203303 12 45 1.6 3.2 0.08 2.18 2.18 99 1015.8
20260502203203 12 45 1.6 3.2 0.10 2.18 2.18 99 1015.7
20260502203103 12 46 1.6 3.2 0.13 2.18 2.18 99 1015.7
20260502203003 12 44 0.0 1.6 0.13 2.18 2.18 99 1015.7
20260502202903 12 44 0.0 1.6 0.15 2.18 2.18 99 1015.6
20260502202824 12 43 0.0 1.6 0.15 2.18 2.18 99 1015.6
20260502202703 12 43 0.0 1.6 0.15 2.18 2.18 99 1015.5
20260502202603 12 0 0.0 0.0 0.15 2.18 2.18 99 1015.4
20260502202503 12 0 0.0 0.0 0.15 2.18 2.18 99 1015.4
20260502202403 12 0 0.0 0.0 0.15 2.18 2.18 99 1015.4
20260502202324 12 0 0.0 0.0 0.18 2.18 2.18 99 1015.4
20260502202203 12 0 0.0 0.0 0.18 2.18 2.18 99 1015.4
20260502202103 12 0 0.0 0.0 0.20 2.18 2.18 99 1015.6
20260502202003 12 0 0.0 0.0 0.20 2.18 2.18 99 1015.4
20260502201903 12 0 0.0 0.0 0.23 2.18 2.18 99 1015.6
20260502201803 12 0 0.0 0.0 0.23 2.18 2.18 99 1015.6
20260502201703 12 0 0.0 0.0 0.25 2.18 2.18 99 1015.3
20260502201603 12 0 0.0 0.0 0.25 2.18 2.18 99 1015.3
20260502201524 12 0 0.0 0.0 0.28 2.18 2.18 99 1015.3
20260502201424 12 0 0.0 0.0 0.28 2.18 2.18 99 1015.4
20260502201324 12 0 0.0 0.0 0.36 2.18 2.18 99 1015.4
20260502201203 12 0 0.0 0.0 0.36 2.18 2.18 99 1015.5
20260502201103 12 0 0.0 0.0 0.41 2.18 2.18 99 1015.4
20260502201003 12 0 0.0 0.0 0.41 2.18 2.18 99 1015.4
20260502200903 12 0 0.0 0.0 0.43 2.18 2.18 99 1015.3
20260502200803 12 0 0.0 0.0 0.48 2.18 2.18 99 1015.5
20260502200703 12 0 0.0 0.0 0.48 2.18 2.18 99 1015.3
20260502200603 12 0 0.0 0.0 0.51 2.18 2.18 99 1015.4
20260502200503 12 0 0.0 0.0 0.56 2.18 2.18 99 1015.4
20260502200403 12 0 0.0 0.0 0.56 2.18 2.18 99 1015.2
20260502200303 12 0 0.0 0.0 0.58 2.18 2.18 99 1015.1
20260502200203 12 0 0.0 0.0 0.61 2.18 2.18 99 1015.1
20260502200024 12 43 0.0 1.6 0.66 2.18 2.18 99 1015.3
20260502195903 12 45 0.0 1.6 0.69 2.18 2.18 99 1015.2
20260502195803 12 40 0.0 1.6 0.69 2.18 2.18 99 1015.3
20260502195703 12 35 0.0 1.6 0.71 2.18 2.18 99 1015.3
20260502195603 12 35 0.0 1.6 0.71 2.18 2.18 99 1015.4
20260502195503 12 35 0.0 1.6 0.76 2.18 2.18 99 1015.2
20260502195424 12 35 0.0 1.6 0.76 2.18 2.18 99 1015.2
20260502195305 12 35 0.0 1.6 0.79 2.18 2.18 99 1015.3
20260502195224 12 35 0.0 1.6 0.79 2.18 2.18 99 1015.2
20260502195103 12 34 0.0 1.6 0.79 2.18 2.18 99 1015.3
20260502195003 12 30 0.0 1.6 0.79 2.18 2.18 99 1015.2
20260502194903 12 22 0.0 1.6 0.79 2.18 2.18 99 1015.2
20260502194803 12 18 0.0 1.6 0.79 2.18 2.18 99 1015.3
20260502194703 12 7 0.0 1.6 0.79 2.18 2.18 99 1015.3
20260502194603 12 7 0.0 1.6 0.79 2.18 2.18 99 1015.3
20260502194503 12 7 0.0 1.6 0.79 2.18 2.18 99 1015.3
20260502194403 12 11 0.0 1.6 0.79 2.18 2.18 99 1015.4
20260502194303 12 11 0.0 1.6 0.81 2.18 2.18 99 1015.3
20260502194203 12 11 0.0 1.6 0.81 2.18 2.18 99 1015.2
20260502194103 12 11 0.0 1.6 0.81 2.18 2.18 99 1015.3
20260502194024 12 11 0.0 1.6 0.79 2.16 2.16 99 1015.5
20260502193903 12 12 0.0 1.6 0.79 2.16 2.16 99 1015.3
20260502193803 12 12 0.0 1.6 0.79 2.16 2.16 99 1015.5
20260502193703 12 12 0.0 1.6 0.76 2.13 2.13 99 1015.3
20260502193603 12 14 0.0 1.6 0.79 2.13 2.13 99 1015.2
20260502193524 12 17 0.0 1.6 0.76 2.11 2.11 99 1015.2
20260502193403 12 17 0.0 1.6 0.76 2.11 2.11 99 1015.2
20260502193303 12 17 0.0 1.6 0.76 2.11 2.11 99 1015.2
20260502193224 12 17 0.0 1.6 0.74 2.08 2.11 99 1015.2
20260502193103 12 14 0.0 1.6 0.71 2.06 2.06 99 1015.2
20260502193003 12 14 0.0 1.6 0.71 2.06 2.06 99 1015.2
20260502192903 12 13 0.0 1.6 0.69 2.03 2.06 99 1015.2
20260502192803 12 12 0.0 1.6 0.69 2.03 2.03 99 1015.3
20260502192703 12 12 0.0 1.6 0.69 2.03 2.03 99 1015.1
20260502192603 12 12 0.0 1.6 0.69 2.03 2.03 99 1015.1
20260502192524 12 12 0.0 1.6 0.69 2.03 2.03 99 1015.1
20260502192424 12 12 0.0 1.6 0.69 2.03 2.03 99 1015.1
20260502192305 12 12 0.0 1.6 0.66 2.01 2.01 99 1015.1
20260502192203 12 12 0.0 1.6 0.66 2.01 2.01 99 1015.1
20260502192103 12 11 0.0 1.6 0.64 1.98 1.98 99 1015.3
20260502192003 12 11 0.0 1.6 0.64 1.98 1.98 99 1015.1
20260502191903 12 10 0.0 1.6 0.61 1.96 1.96 99 1015.1
20260502191824 12 10 0.0 1.6 0.61 1.96 1.96 99 1015.1
20260502191703 12 359 0.0 3.2 0.58 1.93 1.93 99 1015.1
20260502191603 12 2 0.0 3.2 0.58 1.93 1.93 99 1015.1
20260502191524 12 2 0.0 3.2 0.56 1.91 1.93 99 1015.1
20260502191424 12 4 0.0 3.2 0.56 1.91 1.91 99 1015.2
20260502191303 12 4 0.0 3.2 0.48 1.83 1.85 99 1015.1
20260502191224 12 4 0.0 3.2 0.48 1.83 1.83 99 1015.2
20260502191103 12 6 1.6 3.2 0.43 1.78 1.80 99 1015.0
20260502191003 12 9 1.6 4.8 0.43 1.78 1.78 99 1015.0
20260502190903 12 11 1.6 4.8 0.41 1.75 1.75 99 1015.1
20260502190803 13 13 1.6 4.8 0.36 1.70 1.70 99 1015.3
20260502190703 13 19 1.6 4.8 0.36 1.70 1.70 99 1015.2
20260502190603 13 22 1.6 4.8 0.33 1.68 1.68 99 1015.3
20260502190503 13 24 1.6 4.8 0.28 1.63 1.63 99 1015.0
20260502190403 13 28 1.6 4.8 0.28 1.63 1.63 99 1015.0
20260502190303 13 28 1.6 4.8 0.25 1.60 1.60 99 1015.2
20260502190203 13 28 1.6 4.8 0.23 1.57 1.57 99 1015.1
20260502190003 13 31 0.0 3.2 0.18 1.52 1.52 99 1015.1
20260502185903 13 33 0.0 3.2 0.15 1.50 1.50 99 1015.0
20260502185803 13 33 0.0 3.2 0.15 1.50 1.50 99 1015.0
20260502185703 13 33 0.0 3.2 0.13 1.47 1.47 99 1015.1
20260502185603 13 33 0.0 3.2 0.13 1.47 1.47 99 1015.1
20260502185503 13 31 0.0 3.2 0.08 1.42 1.45 99 1015.3
20260502185403 13 30 0.0 3.2 0.08 1.42 1.42 99 1015.3
20260502185305 13 15 0.0 1.6 0.05 1.40 1.40 99 1015.2
20260502185203 13 15 0.0 1.6 0.05 1.40 1.40 99 1015.2